Tracking 20232 objects as of 21-Jan-2020
HD Live streaming from Space Station
objects crossing your sky now

GB 1

Track GB 1 now!
10-day predictions
GB 1 is classified as:


NORAD ID: 14143
Int'l Code: 1983-056C
Perigee: 383.4 km
Apogee: 1,743.8 km
Inclination: 63.3 °
Period: 106.3 minutes
Semi major axis: 7434 km
RCS: Unknown
Launch date: June 9, 1983
Source: United States (US)
Launch site: AIR FORCE WESTERN TEST RANGE (AFWTR)
aabbcc
Your satellite tracking list
Your tracking list is empty




NASA's NSSDC Master Catalog

Two Line Element Set (TLE):
1 14143U 83056C   20020.54200244 +.00000225 +00000-0 +31475-4 0  9993
2 14143 063.2967 091.2055 0914910 089.4109 281.1539 13.54315921027490
Source of the keplerian elements: McCants